Abilene, TX

6:13 PM CST on January 19, 2017 (GMT -0600)
Abilene Regional

Weather History for KABI - July, 2014

Change the Weather History Date:

Sunday, July 27, 2014

  Actual Average Record
Temperature  
Mean Temperature 90 °F 84 °F  
Max Temperature 101 °F 95 °F 107 °F (1944)
Min Temperature 78 °F 73 °F 63 °F (1994)
Degree Days  
Heating Degree Days 0 0  
Month to date heating degree days 0 0  
Since 1 June heating degree days 0 1  
Since 1 July heating degree days 0 0  
Cooling Degree Days 25 19  
Month to date cooling degree days 510 486  
Year to date cooling degree days 1491 1318  
Since 1 June cooling degree days 977 921  
Growing Degree Days 40 (Base 50)    
Moisture  
Dew Point 64 °F    
Average Humidity 51    
Maximum Humidity 74    
Minimum Humidity 28    
Precipitation  
Precipitation 0.00 in 0.06 in 3.15 in (2010)
Month to date precipitation 2.09 1.63  
Year to date precipitation 9.83 14.13  
Sea Level Pressure  
Sea Level Pressure 29.94 in    
Wind  
Wind Speed 10 mph (SSE)    
Max Wind Speed 17 mph    
Max Gust Speed 21 mph    
Visibility 10 miles    
Events      
T = Trace of Precipitation, MM = Missing Value Source: NWS Daily Summary

Daily Weather History Graph

Daily Weather History Graph

Search for Another Location

Airport or City:

Trip Planner

Search our weather history database for the weather conditions in past years. The results will help you decide how hot, cold, wet, or windy it might be!

Date:

Astronomy

Jul. 27, 2014 Rise Set
Actual Time 6:49 AM CDT 8:40 PM CDT
Civil Twilight 6:22 AM CDT 9:07 PM CDT
Nautical Twilight 5:50 AM CDT 9:39 PM CDT
Astronomical Twilight 5:15 AM CDT 10:14 PM CDT
Moon 7:32 AM CDT (7/27) 8:58 PM CDT (7/27)
Length of Visible Light 14h 44m
Length of Day
13h 50m
New Moon, 1% of the Moon is Illuminated
Jul 27
New Moon
Aug 3
First Quarter
Aug 10
Full
Aug 17
Last Quarter
Aug 25
New

Hourly Weather History & Observations

Time (CDT) Temp. Heat Index Dew Point Humidity Pressure Visibility Wind Dir Wind Speed Gust Speed Precip Events Conditions
12:52 AM 82.0 °F 83.1 °F 63.0 °F 52% 29.91 in 10.0 mi SSE 8.1 mph - N/A   Clear
1:52 AM 81.0 °F 82.2 °F 63.0 °F 54% 29.91 in 10.0 mi SSE 6.9 mph - N/A   Clear
2:52 AM 80.1 °F 81.5 °F 63.0 °F 56% 29.91 in 10.0 mi SSE 9.2 mph - N/A   Clear
3:52 AM 81.0 °F 82.5 °F 64.0 °F 56% 29.92 in 10.0 mi South 10.4 mph - N/A   Clear
4:52 AM 80.1 °F 82.1 °F 66.0 °F 62% 29.93 in 10.0 mi South 11.5 mph - N/A   Clear
5:52 AM 79.0 °F - 68.0 °F 69% 29.94 in 10.0 mi South 10.4 mph - N/A   Clear
6:52 AM 79.0 °F - 69.1 °F 72% 29.95 in 10.0 mi South 9.2 mph - N/A   Clear
7:52 AM 79.0 °F - 69.1 °F 72% 29.97 in 10.0 mi South 10.4 mph - N/A   Clear
8:52 AM 82.9 °F 85.8 °F 68.0 °F 60% 29.99 in 10.0 mi SSW 12.7 mph - N/A   Clear
9:52 AM 84.9 °F 88.8 °F 69.1 °F 59% 30.00 in 10.0 mi SSW 12.7 mph - N/A   Clear
10:52 AM 89.1 °F 93.7 °F 69.1 °F 52% 30.00 in 10.0 mi SSW 12.7 mph - N/A   Clear
12:52 PM 95.0 °F 97.9 °F 66.0 °F 38% 29.97 in 10.0 mi SSW 10.4 mph - N/A   Clear
1:52 PM 97.0 °F 99.3 °F 64.0 °F 34% 29.96 in 10.0 mi South 10.4 mph - N/A   Clear
2:52 PM 99.0 °F 99.5 °F 61.0 °F 28% 29.94 in 10.0 mi ESE 6.9 mph 17.3 mph N/A   Partly Cloudy
3:52 PM 99.0 °F 99.5 °F 61.0 °F 28% 29.94 in 10.0 mi SE 8.1 mph - N/A   Scattered Clouds
4:52 PM 98.1 °F 97.7 °F 59.0 °F 27% 29.93 in 10.0 mi SSE 8.1 mph - N/A   Clear
5:52 PM 99.0 °F 99.5 °F 60.1 °F 28% 29.92 in 10.0 mi SE 11.5 mph - N/A   Clear
6:52 PM 98.1 °F 97.7 °F 59.0 °F 27% 29.92 in 10.0 mi SE 12.7 mph - N/A   Clear
7:52 PM 97.0 °F 96.5 °F 59.0 °F 28% 29.92 in 10.0 mi SE 9.2 mph - N/A   Partly Cloudy
8:52 PM 91.9 °F 91.5 °F 60.1 °F 34% 29.93 in 10.0 mi SSE 10.4 mph - N/A   Clear
9:52 PM 89.1 °F 89.3 °F 62.1 °F 40% 29.95 in 10.0 mi SSE 8.1 mph - N/A   Clear
10:52 PM 87.1 °F 87.0 °F 61.0 °F 41% 29.97 in 10.0 mi SSE 9.2 mph - N/A   Clear
11:52 PM 86.0 °F 86.3 °F 62.1 °F 44% 29.98 in 10.0 mi SSE 10.4 mph - N/A   Clear